Regional Weather Roundup
Issued by NWS

Home | Current Version | Previous Version | Graphics & Text | Print | Product List | Glossary On
Versions: 1 2 3 4 5 6 7 8 9 10 11 12 13 14 15 16 17 18 19 20 21 22 23 24 25 26 27 28 29 30 31 32 33 34 35 36 37 38 39 40 41 42 43 44 45 46 47 48 49 50
717
ASUS43 KIND 250909
RWRIN

WEATHER ROUNDUP FOR INDIANA
NATIONAL WEATHER SERVICE INDIANAPOLIS IN
500 AM EDT WED MAY 25 2016

NOTE: "FAIR" INDICATES FEW OR NO CLOUDS BELOW 12,000 FEET WITH NO
SIGNIFICANT WEATHER AND/OR OBSTRUCTIONS TO VISIBILITY.

* - STATION DOES NOT REPORT WEATHER SUCH AS PRECIPITATION OR FOG.

+ - STATION NOT QUALITY CONTROLLED BY THE NATIONAL WEATHER SERVICE.
    USE DATA WITH CAUTION...ESPECIALLY DEWPOINT AND RELATIVE
    HUMIDITY OBSERVATIONS.

INZ001>003-010>013-019-020-251000-
NORTHWEST INDIANA

CITY           SKY/WX    TMP DP  RH WIND       PRES   REMARKS
GARY /AIRPORT/ MOCLDY    71  64  79 S5        30.01S
KNOX *+        CLOUDY    63  46  55 S5        30.03S
LA PORTE +     CLOUDY    67  56  68 CALM      30.03F
MICHIGAN CITY+ CLOUDY    66  55  68 S3        30.02S
MONTICELLO +   CLOUDY    66  54  63 S3        30.03S
RENSSELAER +   MOCLDY    68  54  60 S5        30.03S
VALPARAISO     PTCLDY    66  55  67 S5        30.03S

$$

LMZ046-743>745-251000-
SOUTHERN LAKE MICHIGAN

STATION/POSITION TIME  TEMP    WIND        PRES    WAVE
                       AIR SEA DIR/SP/G            HT
                 (UTC) (F)     (DEG/KT/KT) (MB)    (FT)
BURNS HARBOR     0800   70     200/  9/ 11 1016.6S
MICHIGAN CITY    0800   70     170/ 10/ 11   N/A
5NW MICH CITY    0900   63 57  190/  6/  8   N/A     1

$$

INZ004-005-014>016-021>024-251000-
NORTH CENTRAL INDIANA

CITY           SKY/WX    TMP DP  RH WIND       PRES   REMARKS
GOSHEN         CLOUDY    59  52  77 CALM      30.05R
LOGANSPORT +   CLOUDY    63  54  72 CALM      30.06R
PERU/GRISSOM   MOCLDY    63  57  79 S6        30.04S
ROCHESTER +    CLOUDY    70  55  60 S3        30.05S
SOUTH BEND     CLOUDY    65  55  70 SW5       30.03F
WARSAW +       CLOUDY    64  54  68 CALM      30.05S

$$

INZ006>009-017-018-025>027-251000-
NORTHEAST INDIANA

CITY           SKY/WX    TMP DP  RH WIND       PRES   REMARKS
ANGOLA *+      CLEAR     57  55  94 CALM      30.06R
AUBURN +       CLOUDY    64  52  63 SW3       30.06F
FORT WAYNE     CLOUDY    62  52  69 CALM      30.07S
HUNTINGTON +   CLOUDY   N/A N/A N/A CALM      30.06S

$$

INZ028-029-035-036-043>045-051>053-251000-
WEST CENTRAL INDIANA

CITY           SKY/WX    TMP DP  RH WIND       PRES   REMARKS
CRAWFORDSVL +  MOCLDY    62  56  81 S5        30.05S
GREENCASTLE +  MOCLDY    64  59  82 CALM      30.06S
LAFAYETTE      CLOUDY    64  56  75 S3        30.03R
TERRE HAUTE    CLOUDY    63  56  78 CALM      30.04S

$$

INZ030>032-037>040-046>048-054>057-064-065-251000-
CENTRAL INDIANA

CITY           SKY/WX    TMP DP  RH WIND       PRES   REMARKS
CP ATTERBURY + CLOUDY    63  59  88 CALM      30.08R
FISHERS *+     CLOUDY    63  59  88 S3        30.07
FRANKFORT +      N/A     64  49  57 CALM      30.06S
GREENWOOD *+   CLOUDY    66  57  72 SE5       30.07S
INDIANAPOLIS   CLOUDY    70  56  61 S10       30.04F
-EAGLE CREEK   CLOUDY    67  57  70 SE3       30.05S
KOKOMO *+      MOCLDY    61  52  72 S5        30.06R
MARION +       MOCLDY    63  55  74 S3        30.08S
SHELBYVILLE    CLOUDY    67  57  70 SE6       30.06S
ZIONSVILLE +   CLOUDY    63  57  82 SE3       30.07R

$$

INZ033-034-041-042-049-050-058-059-251000-
EAST CENTRAL INDIANA

CITY           SKY/WX    TMP DP  RH WIND       PRES   REMARKS
MUNCIE         CLOUDY    66  53  63 S5        30.07F

$$

INZ060-061-067>069-081>083-085>088-251000-
SOUTHWEST INDIANA

CITY           SKY/WX    TMP DP  RH WIND       PRES   REMARKS
EVANSVILLE     CLEAR     63  59  87 CALM      30.05S
HUNTINGBURG *+ CLOUDY    63  55  77 SE7       30.05F
WASHINGTON +   CLEAR     63  60  91 S5        30.04S

$$

INZ062-063-066-070>080-084-089>092-251000-
SOUTH CENTRAL AND SOUTHEAST INDIANA

CITY           SKY/WX    TMP DP  RH WIND       PRES   REMARKS
BEDFORD +      PTCLDY    63  63 100 CALM      30.06S
BLOOMINGTON    CLOUDY    66  57  72 E3        30.06S
MADISON *+     CLOUDY    64  55  72 SE3       30.10S
NORTH VERNON + CLOUDY    66  63  88 CALM      30.08S
SEYMOUR +      CLOUDY    68  59  73 SE6       30.07R

$$





USA.gov is the U.S. government's official web portal to all federal, state and local government web resources and services.